GW0571 Weather Reports


Display with metric or nautical units.
time (UTC)temp
F
wind
direction
speed
MPH
gust
MPH
rain 1hr
in
rain 24hr
in
rain mn
in
humidity
%
barometer
mb
20260510160543 53 329 2.0 5.0 0.00 0.07 0.07 70 1014.6
20260510160042 53 330 0.0 6.0 0.00 0.07 0.07 71 1014.6
20260510155539 53 326 2.0 3.0 0.00 0.07 0.07 76 1014.6
20260510155036 53 337 2.0 4.0 0.00 0.07 0.07 75 1014.4
20260510154531 53 245 0.0 3.0 0.00 0.07 0.07 78 1014.7
20260510154026 53 22 3.0 4.0 0.00 0.07 0.07 75 1014.4
20260510153521 53 328 2.0 3.0 0.00 0.07 0.07 77 1014.3
20260510153019 53 237 3.0 4.0 0.00 0.07 0.07 77 1014.6
20260510152516 52 22 1.0 2.0 0.00 0.07 0.07 80 1014.2
20260510152012 51 352 0.0 2.0 0.00 0.07 0.07 80 1014.3
20260510151509 51 325 2.0 3.0 0.00 0.07 0.07 81 1014.3
20260510151006 51 61 0.0 4.0 0.00 0.07 0.07 82 1014.3
20260510150456 51 6 2.0 4.0 0.00 0.07 0.07 82 1014.0
20260510145952 51 13 4.0 5.0 0.00 0.07 0.07 81 1013.9
20260510145448 51 357 2.0 4.0 0.00 0.07 0.07 81 1014.0
20260510144945 51 309 2.0 7.0 0.00 0.07 0.07 80 1013.8
20260510144442 51 302 3.0 5.0 0.00 0.07 0.07 82 1014.0
20260510143937 51 74 1.0 4.0 0.00 0.07 0.07 83 1013.8
20260510143433 51 75 3.0 5.0 0.00 0.07 0.07 83 1013.8
20260510142930 50 350 3.0 7.0 0.00 0.07 0.07 83 1013.8
20260510142421 50 43 2.0 7.0 0.00 0.07 0.07 84 1013.7
20260510141917 50 274 0.0 3.0 0.00 0.07 0.07 84 1013.8
20260510141415 50 336 2.0 3.0 0.00 0.07 0.07 85 1013.5
20260510140911 50 0 3.0 5.0 0.00 0.07 0.07 85 1013.6
20260510140408 49 337 3.0 8.0 0.00 0.07 0.07 85 1013.5
20260510135901 49 314 2.0 6.0 0.00 0.07 0.07 87 1013.5
20260510135358 50 309 2.0 4.0 0.00 0.07 0.07 88 1013.4
20260510134855 50 18 2.0 4.0 0.00 0.07 0.07 88 1013.3
20260510134351 50 13 2.0 4.0 0.00 0.07 0.07 87 1013.3
20260510133848 50 9 2.0 5.0 0.00 0.07 0.07 87 1012.8
20260510133344 50 1 3.0 3.0 0.00 0.07 0.07 87 1012.8
20260510132839 50 353 2.0 5.0 0.00 0.07 0.07 88 1012.8
20260510132338 49 340 1.0 6.0 0.00 0.07 0.07 89 1012.9
20260510131834 49 352 3.0 5.0 0.00 0.07 0.07 91 1012.9
20260510131332 48 335 3.0 8.0 0.00 0.07 0.07 96 1013.0
20260510130828 48 17 3.0 4.0 0.00 0.07 0.07 96 1013.0
20260510130326 48 346 3.0 6.0 0.00 0.07 0.07 96 1012.9
20260510125822 50 333 3.0 4.0 0.00 0.07 0.07 96 1013.0
20260510125318 50 283 0.0 2.0 0.00 0.07 0.07 96 1012.9
20260510124815 50 225 3.0 5.0 0.00 0.07 0.07 96 1012.7
20260510124312 50 224 0.0 2.0 0.00 0.07 0.07 96 1012.7
20260510123808 50 205 0.0 2.0 0.00 0.07 0.07 96 1012.7
20260510123304 50 232 0.0 3.0 0.00 0.07 0.07 96 1012.7
20260510122800 50 76 0.0 1.0 0.00 0.07 0.07 96 1012.3
20260510122256 49 48 0.0 2.0 0.00 0.07 0.07 96 1012.5
20260510121753 49 127 0.0 2.0 0.00 0.07 0.07 96 1012.3
20260510121250 49 60 0.0 0.0 0.00 0.07 0.07 96 1012.1
20260510120747 49 60 0.0 1.0 0.00 0.07 0.07 96 1012.1
20260510120244 49 106 0.0 2.0 0.00 0.07 0.07 96 1012.1
20260510115739 49 99 1.0 3.0 0.00 0.07 0.07 96 1012.0
20260510115238 49 77 0.0 2.0 0.02 0.07 0.07 96 1012.1
20260510114732 49 164 0.0 1.0 0.02 0.07 0.07 96 1011.8
20260510114230 49 86 2.0 2.0 0.00 0.07 0.07 96 1011.5
20260510113725 48 121 0.0 2.0 0.00 0.07 0.07 96 1011.5
20260510113223 48 73 0.0 2.0 0.00 0.07 0.07 96 1011.6
20260510112719 47 89 0.0 2.0 0.00 0.07 0.07 96 1011.6
20260510112216 47 118 0.0 2.0 0.00 0.07 0.07 96 1011.4
20260510111711 47 82 0.0 3.0 0.00 0.07 0.07 96 1011.4
20260510111208 47 113 0.0 2.0 0.00 0.07 0.07 96 1011.3
20260510110703 48 119 0.0 1.0 0.00 0.07 0.07 96 1011.1
20260510110201 47 114 1.0 2.0 0.00 0.07 0.07 96 1011.0
20260510105655 47 145 1.0 2.0 0.00 0.07 0.07 96 1011.0
20260510105150 46 125 2.0 3.0 0.00 0.07 0.07 96 1010.8
20260510104647 46 100 1.0 2.0 0.00 0.07 0.07 96 1010.6
20260510104144 46 55 0.0 1.0 0.00 0.07 0.07 96 1010.7
20260510103641 46 124 1.0 2.0 0.00 0.07 0.07 96 1010.5
20260510103137 46 109 0.0 3.0 0.00 0.07 0.07 96 1010.6
20260510102632 46 130 2.0 3.0 0.00 0.07 0.07 96 1010.6
20260510102128 45 145 0.0 2.0 0.00 0.07 0.07 96 1010.5
20260510101626 45 117 1.0 2.0 0.00 0.07 0.07 96 1010.1
20260510101124 45 81 1.0 2.0 0.00 0.07 0.07 96 1010.3
20260510100620 45 128 0.0 2.0 0.00 0.07 0.07 96 1010.2
20260510100118 45 87 1.0 2.0 0.00 0.07 0.07 96 1010.3
20260510095613 45 65 0.0 1.0 0.00 0.07 0.07 96 1010.3
20260510095113 46 128 0.0 2.0 0.00 0.07 0.07 96 1010.2
20260510094612 46 89 0.0 2.0 0.00 0.07 0.07 96 1010.0
20260510094108 46 94 2.0 3.0 0.00 0.07 0.07 96 1010.0
20260510093605 45 100 2.0 3.0 0.00 0.07 0.07 96 1010.0
20260510093101 45 78 0.0 2.0 0.00 0.07 0.07 96 1010.1
20260510092558 45 37 2.0 3.0 0.00 0.07 0.07 96 1010.0
20260510092058 45 100 2.0 3.0 0.00 0.07 0.07 96 1010.0
20260510091555 45 101 2.0 2.0 0.00 0.07 0.07 96 1009.7
20260510091051 46 110 0.0 2.0 0.00 0.07 0.07 96 1009.7
20260510090548 46 101 2.0 3.0 0.00 0.07 0.07 96 1009.7
20260510090043 45 101 2.0 3.0 0.00 0.07 0.07 96 1009.7
20260510085538 45 104 2.0 2.0 0.00 0.07 0.07 96 1009.7
20260510085035 45 89 1.0 2.0 0.00 0.07 0.07 96 1009.5
20260510084532 45 101 1.0 2.0 0.00 0.07 0.07 96 1009.3
20260510084029 45 73 0.0 2.0 0.00 0.07 0.07 96 1009.6
20260510083525 45 98 0.0 2.0 0.00 0.07 0.07 96 1009.3
20260510083021 45 111 0.0 2.0 0.00 0.07 0.07 96 1009.6
20260510082518 45 105 2.0 2.0 0.00 0.07 0.07 96 1009.5
20260510082013 45 56 1.0 2.0 0.00 0.07 0.07 96 1009.3
20260510081508 46 77 0.0 2.0 0.00 0.07 0.07 96 1009.5
20260510081005 46 110 1.0 3.0 0.00 0.07 0.07 96 1009.3
20260510080503 46 104 1.0 2.0 0.00 0.07 0.07 96 1009.2
20260510080000 45 101 2.0 2.0 0.00 0.07 0.07 96 1009.1
20260510075458 46 94 2.0 2.0 0.00 0.07 0.07 96 1009.1
20260510074954 46 76 1.0 2.0 0.00 0.07 0.07 96 1009.1
20260510074452 46 87 1.0 2.0 0.00 0.07 0.07 96 1009.1
20260510073948 46 92 2.0 2.0 0.00 0.07 0.07 96 1008.9
20260510073443 46 89 1.0 1.0 0.00 0.07 0.07 96 1009.1
20260510072940 46 117 1.0 2.0 0.00 0.07 0.07 96 1009.0
20260510072437 46 119 0.0 3.0 0.00 0.07 0.07 96 1008.9
20260510071933 46 89 2.0 3.0 0.00 0.07 0.07 96 1009.1
20260510071429 46 93 1.0 2.0 0.00 0.07 0.07 96 1008.9
20260510070927 46 95 2.0 2.0 0.00 0.07 0.07 96 1008.9
20260510070425 47 88 2.0 2.0 0.00 0.07 0.07 96 1009.0
20260510065920 47 103 3.0 3.0 0.00 0.07 0.07 96 1009.0
20260510065417 47 147 0.0 2.0 0.00 0.07 0.07 96 1009.1
20260510064913 47 101 1.0 2.0 0.00 0.07 0.07 96 1008.8
20260510064411 47 92 1.0 1.0 0.02 0.07 0.07 96 1009.1
20260510063907 47 87 0.0 2.0 0.02 0.07 0.07 96 1009.0
20260510063403 48 66 2.0 3.0 0.00 0.06 0.06 96 1009.1
20260510062901 48 98 2.0 3.0 0.02 0.06 0.06 96 1009.1
20260510062356 48 114 2.0 3.0 0.02 0.06 0.06 96 1009.1
20260510061851 48 89 0.0 1.0 0.02 0.06 0.06 96 1009.0
20260510061348 48 89 0.0 3.0 0.05 0.06 0.06 96 1009.1
20260510060844 48 171 0.0 8.0 0.02 0.06 0.06 96 1009.2
20260510060341 48 121 3.0 4.0 0.02 0.05 0.05 96 1009.6
20260510055838 48 202 2.0 2.0 0.05 0.05 0.05 96 1009.5
20260510055336 48 115 3.0 5.0 0.02 0.05 0.05 96 1009.1
20260510054831 48 101 0.0 2.0 0.02 0.04 0.04 96 1009.5
20260510054326 48 183 2.0 2.0 0.05 0.04 0.04 96 1009.6
20260510053822 48 127 2.0 3.0 0.02 0.04 0.04 96 1009.6
20260510053317 48 139 3.0 5.0 0.02 0.04 0.04 96 1009.6
20260510052814 48 184 2.0 4.0 0.02 0.04 0.04 96 1010.0
20260510052310 48 184 2.0 4.0 0.02 0.03 0.03 96 1009.9
20260510051806 48 105 2.0 3.0 0.02 0.03 0.03 96 1010.0
20260510051303 48 124 4.0 4.0 0.02 0.02 0.02 96 1010.2
20260510050800 48 124 4.0 4.0 0.05 0.02 0.02 96 1010.2
20260510050257 49 124 4.0 5.0 0.05 0.02 0.02 96 1010.4
20260510045754 49 135 2.0 4.0 0.05 0.02 0.02 96 1010.5
20260510045250 49 120 3.0 4.0 0.05 0.01 0.01 96 1010.8
20260510044747 49 137 1.0 2.0 0.02 0.01 0.01 95 1010.7
20260510044245 49 109 3.0 4.0 0.02 0.00 0.00 93 1010.6
20260510043740 50 116 3.0 4.0 0.02 0.00 0.00 92 1010.6
20260510043237 50 214 2.0 3.0 0.00 0.00 0.00 90 1010.7
20260510042734 50 253 5.0 6.0 0.00 0.00 0.00 90 1010.7
20260510042229 50 335 2.0 4.0 0.00 0.00 0.00 89 1010.6
20260510041727 51 252 5.0 7.0 0.00 0.00 0.00 88 1010.8
20260510041224 51 304 3.0 6.0 0.00 0.00 0.00 88 1010.7
20260510040721 51 221 3.0 9.0 0.00 0.00 0.00 89 1010.5
20260510040218 51 331 2.0 8.0 0.00 0.00 0.00 90 1010.3
20260510035713 50 246 12.0 16.0 0.00 0.37 0.37 92 1010.4
20260510035209 50 264 5.0 9.0 0.00 0.37 0.37 96 1010.5
20260510034705 50 242 6.0 10.0 0.00 0.37 0.37 96 1010.3
20260510034203 50 331 3.0 14.0 0.00 0.37 0.37 96 1010.2
20260510033659 50 147 1.0 4.0 0.00 0.37 0.37 96 1009.3
20260510033157 49 146 3.0 5.0 0.00 0.37 0.37 96 1009.2
20260510032653 49 176 2.0 3.0 0.00 0.37 0.37 96 1009.1
20260510032149 49 126 2.0 4.0 0.00 0.37 0.37 96 1009.0
20260510031643 49 125 3.0 5.0 0.00 0.37 0.37 96 1008.9
20260510031140 49 128 3.0 4.0 0.00 0.37 0.37 96 1009.1
20260510030635 49 104 2.0 3.0 0.00 0.37 0.37 96 1009.1
20260510030133 49 171 3.0 6.0 0.00 0.37 0.37 96 1009.5
20260510025630 49 110 1.0 3.0 0.00 0.37 0.37 96 1009.2
20260510025127 49 113 3.0 3.0 0.00 0.37 0.37 96 1009.2
20260510024623 49 131 2.0 3.0 0.00 0.37 0.37 96 1009.0
20260510024120 49 132 0.0 3.0 0.00 0.37 0.37 96 1009.0
20260510023616 49 141 2.0 6.0 0.00 0.37 0.37 96 1008.8
20260510023114 49 149 5.0 6.0 0.00 0.37 0.37 96 1008.5
20260510022613 49 166 2.0 3.0 0.00 0.37 0.37 96 1008.5
20260510022108 49 150 1.0 3.0 0.00 0.37 0.37 96 1008.5
20260510021604 49 127 3.0 4.0 0.00 0.37 0.37 96 1008.5
20260510021102 49 152 2.0 3.0 0.00 0.37 0.37 96 1008.6
20260510020556 49 146 3.0 5.0 0.00 0.37 0.37 96 1008.5
20260510020052 49 166 0.0 3.0 0.00 0.37 0.37 96 1008.4
20260510015548 49 125 3.0 4.0 0.00 0.37 0.37 96 1008.7
20260510015044 49 118 2.0 3.0 0.00 0.37 0.37 96 1008.4
20260510014540 49 127 0.0 3.0 0.00 0.37 0.37 96 1008.3
20260510014038 49 132 2.0 4.0 0.00 0.37 0.37 96 1008.3
20260510013532 49 121 1.0 2.0 0.00 0.37 0.37 96 1008.0
20260510013028 50 130 3.0 4.0 0.00 0.37 0.37 96 1008.3
20260510012528 50 140 3.0 5.0 0.00 0.37 0.37 96 1008.4
20260510012025 50 126 2.0 5.0 0.00 0.37 0.37 96 1008.1
20260510011524 50 140 2.0 7.0 0.00 0.37 0.37 96 1008.1
20260510011020 50 204 1.0 3.0 0.00 0.37 0.37 96 1008.2
20260510010518 50 158 1.0 2.0 0.00 0.37 0.37 96 1008.0
20260510010014 50 310 1.0 4.0 0.00 0.37 0.37 96 1008.0
20260510005510 50 135 0.0 3.0 0.00 0.37 0.37 96 1007.9
20260510005008 50 129 2.0 3.0 0.00 0.37 0.37 96 1007.9
20260510004505 50 99 1.0 2.0 0.00 0.37 0.37 96 1008.1
20260510004003 50 103 0.0 2.0 0.00 0.37 0.37 96 1007.7
20260510003459 50 155 3.0 4.0 0.00 0.37 0.37 96 1007.8
20260510002955 50 158 3.0 4.0 0.00 0.37 0.37 96 1007.6
20260510002451 51 133 1.0 3.0 0.00 0.37 0.37 96 1007.6
20260510001948 51 159 2.0 3.0 0.00 0.37 0.37 96 1007.7
20260510001445 51 132 3.0 6.0 0.00 0.37 0.37 96 1007.3
20260510000943 51 106 2.0 5.0 0.00 0.37 0.37 96 1007.7
20260510000440 51 148 3.0 5.0 0.00 0.37 0.37 96 1007.7
20260509235935 51 173 2.0 5.0 0.00 0.37 0.37 96 1007.4
20260509235432 51 120 2.0 3.0 0.00 0.37 0.37 95 1007.4
20260509234928 52 126 2.0 4.0 0.00 0.37 0.37 95 1007.3
20260509234425 52 119 2.0 5.0 0.00 0.37 0.37 94 1007.5
20260509233923 52 120 0.0 6.0 0.00 0.37 0.37 94 1007.5
20260509233421 53 123 0.0 3.0 0.00 0.37 0.37 93 1007.3
20260509232916 53 147 3.0 6.0 0.00 0.37 0.37 92 1007.2
20260509232414 53 120 2.0 5.0 0.00 0.37 0.37 91 1007.2
20260509231910 54 148 2.0 5.0 0.00 0.37 0.37 91 1007.2
20260509231407 54 127 1.0 7.0 0.00 0.37 0.37 90 1007.3
20260509230905 54 199 2.0 8.0 0.00 0.37 0.37 90 1007.2
20260509230401 55 117 3.0 5.0 0.00 0.37 0.37 91 1007.3
20260509225857 54 123 2.0 4.0 0.00 0.37 0.37 92 1007.4
20260509225354 54 154 2.0 4.0 0.00 0.37 0.37 92 1007.4
20260509224849 54 137 6.0 7.0 0.00 0.37 0.37 92 1007.3
20260509224346 54 125 2.0 10.0 0.00 0.37 0.37 91 1007.5
20260509223843 53 130 2.0 5.0 0.00 0.37 0.37 94 1007.6
20260509223340 53 247 5.0 5.0 0.00 0.37 0.37 94 1007.7
20260509222837 53 214 1.0 5.0 0.00 0.37 0.37 94 1007.5
20260509222332 53 180 0.0 4.0 0.00 0.37 0.37 94 1007.4
20260509221827 53 209 3.0 4.0 0.00 0.37 0.37 94 1007.3
20260509221325 53 213 2.0 5.0 0.00 0.37 0.37 94 1007.2
20260509220825 53 178 4.0 6.0 0.00 0.37 0.37 94 1007.1
20260509220321 53 229 7.0 7.0 0.00 0.37 0.37 94 1007.2
20260509215817 52 139 6.0 9.0 0.00 0.37 0.37 95 1007.4
20260509215314 52 133 2.0 8.0 0.00 0.37 0.37 95 1007.4
20260509214811 52 116 1.0 8.0 0.00 0.37 0.37 96 1007.3
20260509214308 52 178 5.0 7.0 0.00 0.37 0.37 96 1007.4
20260509213805 53 220 1.0 3.0 0.00 0.37 0.37 96 1007.3
20260509213301 52 237 6.0 6.0 0.00 0.37 0.37 96 1007.5
20260509212758 52 116 2.0 5.0 0.00 0.37 0.37 96 1007.4
20260509212255 52 131 3.0 7.0 0.00 0.37 0.37 96 1007.7
20260509211751 52 145 2.0 5.0 0.00 0.37 0.37 96 1007.5
20260509211248 52 202 1.0 5.0 0.00 0.37 0.37 96 1007.6
20260509210744 52 236 4.0 6.0 0.00 0.37 0.37 96 1007.7
20260509210242 52 128 1.0 5.0 0.00 0.37 0.37 96 1007.9
20260509205741 51 141 4.0 7.0 0.00 0.37 0.37 96 1007.9
20260509205236 51 192 2.0 7.0 0.02 0.37 0.37 96 1008.0
20260509204732 51 189 2.0 6.0 0.02 0.37 0.37 96 1007.9
20260509204229 51 237 2.0 5.0 0.00 0.37 0.37 96 1008.0
20260509203725 51 187 2.0 7.0 0.00 0.37 0.37 96 1008.1
20260509203223 51 217 3.0 5.0 0.00 0.37 0.37 96 1008.1
20260509202719 51 125 3.0 5.0 0.00 0.37 0.37 96 1008.2
20260509202214 50 134 2.0 5.0 0.00 0.37 0.37 96 1008.1
20260509201709 50 213 3.0 5.0 0.00 0.37 0.37 96 1008.3
20260509201206 50 183 1.0 3.0 0.00 0.37 0.37 96 1008.2
20260509200703 50 198 2.0 5.0 0.02 0.37 0.37 96 1008.2
20260509200157 50 168 3.0 4.0 0.00 0.37 0.37 96 1008.3
20260509195654 50 133 4.0 6.0 0.00 0.37 0.37 96 1008.5
20260509195149 50 83 2.0 3.0 0.02 0.37 0.37 96 1008.3
20260509194643 50 132 2.0 7.0 0.02 0.37 0.37 96 1008.5
20260509194140 50 98 0.0 5.0 0.00 0.36 0.36 96 1008.3
20260509193636 50 163 3.0 11.0 0.02 0.36 0.36 96 1008.4
20260509193132 50 131 8.0 8.0 0.02 0.36 0.36 96 1008.6
20260509192629 50 105 2.0 3.0 0.02 0.36 0.36 96 1008.6
20260509192123 50 212 2.0 4.0 0.02 0.36 0.36 96 1008.6
20260509191618 50 190 0.0 5.0 0.02 0.35 0.35 96 1008.7
20260509191115 50 137 3.0 5.0 0.02 0.35 0.35 96 1008.6
20260509190611 50 151 1.0 7.0 0.00 0.35 0.35 96 1008.7
20260509190109 50 154 2.0 5.0 0.02 0.35 0.35 96 1008.9
20260509185606 50 154 2.0 6.0 0.00 0.35 0.35 96 1008.8
20260509185102 50 144 2.0 7.0 0.00 0.35 0.35 96 1008.8
20260509184601 50 151 3.0 4.0 0.02 0.35 0.35 96 1008.7
20260509184057 50 186 3.0 5.0 0.02 0.35 0.35 96 1008.9
20260509183552 50 120 3.0 5.0 0.00 0.34 0.34 96 1008.9
20260509183048 50 156 2.0 5.0 0.00 0.34 0.34 96 1008.7
20260509182545 50 237 3.0 5.0 0.00 0.34 0.34 96 1008.8
20260509182042 50 152 4.0 7.0 0.00 0.34 0.34 96 1008.5
20260509181540 50 159 4.0 7.0 0.00 0.34 0.34 95 1008.6
20260509181037 50 202 3.0 10.0 0.00 0.34 0.34 95 1008.7
20260509180532 50 123 1.0 6.0 0.00 0.34 0.34 95 1008.6
20260509180030 50 184 4.0 9.0 0.00 0.34 0.34 96 1008.7
20260509175525 50 139 3.0 11.0 0.00 0.34 0.34 96 1008.6
20260509175023 50 201 5.0 8.0 0.00 0.34 0.34 96 1008.7
20260509174519 50 166 0.0 3.0 0.00 0.34 0.34 96 1008.7
20260509174014 50 140 2.0 4.0 0.02 0.34 0.34 96 1008.5
20260509173509 50 155 3.0 5.0 0.02 0.34 0.34 96 1008.7
20260509173005 50 110 3.0 4.0 0.00 0.34 0.34 96 1008.8
20260509172502 50 186 2.0 7.0 0.00 0.34 0.34 96 1008.6
20260509171958 49 223 3.0 6.0 0.00 0.34 0.34 96 1008.7
20260509171454 49 234 4.0 6.0 0.00 0.34 0.34 96 1008.6
20260509170951 49 185 4.0 7.0 0.00 0.34 0.34 96 1008.8
20260509170446 49 237 2.0 3.0 0.00 0.34 0.34 96 1008.7
20260509165942 49 92 0.0 7.0 0.00 0.34 0.34 96 1008.6
20260509165442 49 124 7.0 7.0 0.00 0.34 0.34 96 1008.6
20260509164937 49 233 3.0 5.0 0.00 0.34 0.34 96 1008.8
20260509164433 49 207 0.0 4.0 0.00 0.34 0.34 96 1009.0
20260509163929 49 204 2.0 5.0 0.00 0.34 0.34 96 1008.7
20260509163427 49 150 5.0 6.0 0.02 0.34 0.34 96 1008.8
20260509162926 49 140 2.0 13.0 0.00 0.34 0.34 96 1008.9
20260509162425 49 137 7.0 8.0 0.00 0.34 0.34 96 1008.8
20260509161920 49 147 2.0 3.0 0.00 0.34 0.34 96 1009.1
20260509161417 49 133 2.0 7.0 0.00 0.34 0.34 96 1008.8
20260509160913 50 252 2.0 5.0 0.00 0.34 0.34 96 1009.0